Flag for Moldova Weather past 2 weeks in Cahul, Moldova

Now
46 °F

Passing clouds.


Feels Like: 46 °F
Forecast: 40 / 54 °F
Wind: 2 mph from West

Location: Galati

Current Time: Apr 20, 2015 at 12:39:10 AM

Latest Report: Apr 19, 2015 at 11:00 PM


Visibility: 13 mi

Pressure: 30.05 "Hg

Humidity: 54%

Dew point: 30 °F

Location of CahulLocation

Historic Weather in Cahul — Graph

°F

Cahul temperature yesterday

Maximum temperature yesterday: 54 °F (at 5:00 PM)
Minimum temperature yesterday: 40 °F (at 4:00 AM)
Average temperature yesterday: 47 °F

Past Weeks' High & Low Weather Summary

 TemperatureHumidityPressure
High80 °F (Apr 17, 5:00 PM)96% (Apr 6, 1:00 PM)30.41 "Hg (Apr 6, 1:00 PM)
Low35 °F (Apr 5, 7:00 AM)16% (Apr 11, 5:00 PM)29.71 "Hg (Apr 17, 8:00 PM)
Average53 °F54%30.05 "Hg
* Reported Apr 4 11:00 PM — Apr 19 11:00 PM, Cahul, Weather by CustomWeather, © 2015

Note: Actual official high and low records may vary slightly from our data, if they occured in-between our weather recording intervals... More about our weather records

Advertising

Cahul weather history for previous 24 hours

 ConditionsComfort  
Time TempWeatherWind HumidityBarometerVisibility
11:00 PM
Sun, Apr 19
46 °FPassing clouds.2 mph54%30.05 "Hg12 mi
10:00 PM47 °FPassing clouds.3 mph53%30.05 "Hg12 mi
9:00 PM49 °FPassing clouds.1 mph48%30.04 "Hg12 mi
8:00 PM51 °FPassing clouds.2 mph41%30.02 "Hg12 mi
7:00 PM52 °FPartly sunny.3 mph39%30.01 "Hg12 mi
6:00 PM54 °FScattered clouds.3 mph36%30.01 "Hg12 mi
5:00 PM54 °FScattered clouds.6 mph40%30.01 "Hg12 mi
4:00 PM52 °FScattered clouds.6 mph39%30.03 "Hg12 mi
3:00 PM52 °FOvercast.6 mph40%30.03 "Hg12 mi
2:00 PM51 °FOvercast.6 mph43%30.04 "Hg12 mi
1:00 PM49 °FOvercast.6 mph46%30.04 "Hg12 mi
12:00 PM48 °FPartly sunny.6 mph51%30.04 "Hg12 mi
11:00 AM47 °FScattered clouds.5 mph57%30.04 "Hg12 mi
10:00 AM46 °FPassing clouds.6 mph58%30.03 "Hg6 mi
9:00 AM43 °FScattered clouds.3 mph70%30.03 "Hg6 mi
8:00 AM41 °FPartly sunny.3 mph84%30.02 "Hg6 mi
7:00 AM40 °FOvercast.2 mph86%29.99 "Hg6 mi
5:00 AM40 °FOvercast.2 mph87%29.99 "Hg6 mi
4:00 AM40 °FLight rain. Overcast.5 mph88%30.00 "Hg6 mi
3:00 AM41 °FLight rain. Overcast.3 mph88%30.00 "Hg6 mi
2:00 AM42 °FLight rain. Overcast.6 mph88%29.98 "Hg12 mi
1:00 AM44 °FOvercast.6 mph82%29.96 "Hg12 mi
12:00 AM46 °FOvercast.5 mph75%29.94 "Hg12 mi
Weather by CustomWeather, © 2015

See weather overviewHow to use our weather pages